�������C�����ː����j�^�v���󋵏��
Date,Time,Cs137(Bq/L),Cs134(Bq/L),�S��(Bq/L)
2019/02/19,00:00,0.57,ND,14
2019/02/19,00:10,0.56,ND,13
2019/02/19,00:20,0.56,ND,14
2019/02/19,00:30,0.58,ND,14
2019/02/19,00:40,0.59,ND,13
2019/02/19,00:50,0.59,ND,10
2019/02/19,01:00,0.59,ND,11
2019/02/19,01:10,0.58,ND,13
2019/02/19,01:20,0.55,ND,13
2019/02/19,01:30,0.54,ND,13
2019/02/19,01:40,0.51,ND,15
2019/02/19,01:50,0.51,ND,16
2019/02/19,02:00,0.48,ND,16
2019/02/19,02:10,0.48,ND,14
2019/02/19,02:20,0.47,ND,13
2019/02/19,02:30,0.45,ND,12
2019/02/19,02:40,0.42,ND,12
2019/02/19,02:50,0.41,ND,10
2019/02/19,03:00,0.40,ND,9.6
2019/02/19,03:10,0.37,ND,9.9
2019/02/19,03:20,0.37,ND,12
2019/02/19,03:30,0.36,ND,12
2019/02/19,03:40,0.35,ND,12
2019/02/19,03:50,0.34,ND,12
2019/02/19,04:00,0.33,ND,14
2019/02/19,04:10,0.32,ND,16
2019/02/19,04:20,0.33,ND,12
2019/02/19,04:30,0.31,ND,12
2019/02/19,04:40,0.33,ND,12
2019/02/19,04:50,0.36,ND,15
2019/02/19,05:00,0.33,ND,12
2019/02/19,05:10,0.39,ND,12
2019/02/19,05:20,0.34,ND,14
2019/02/19,05:30,0.34,ND,15
2019/02/19,05:40,0.34,ND,14
2019/02/19,05:50,0.38,ND,14
2019/02/19,06:00,0.39,ND,13
2019/02/19,06:10,0.43,ND,11
2019/02/19,06:20,0.49,ND,9.7
2019/02/19,06:30,0.58,ND,9.7
2019/02/19,06:40,0.65,ND,8.9
2019/02/19,06:50,0.72,ND,11
2019/02/19,07:00,0.78,ND,14
2019/02/19,07:10,0.81,ND,15
2019/02/19,07:20,0.84,ND,15
2019/02/19,07:30,0.85,ND,15
2019/02/19,07:40,0.87,ND,14
2019/02/19,07:50,0.87,ND,14
2019/02/19,08:00,0.87,ND,13
2019/02/19,08:10,0.92,ND,11
2019/02/19,08:20,0.85,ND,11
2019/02/19,08:30,0.82,ND,12
2019/02/19,08:40,0.79,ND,13
2019/02/19,08:50,0.81,ND,10
2019/02/19,09:00,0.80,ND,ND
2019/02/19,09:10,0.80,ND,ND
2019/02/19,09:20,0.78,ND,ND
2019/02/19,09:30,0.78,ND,9.7
2019/02/19,09:40,0.78,ND,9.9
2019/02/19,09:50,0.73,ND,10
2019/02/19,10:00,0.73,ND,11
2019/02/19,10:10,0.72,ND,10
2019/02/19,10:20,0.71,ND,13
2019/02/19,10:30,0.69,ND,13
2019/02/19,10:40,0.65,ND,10
2019/02/19,10:50,0.69,ND,14
2019/02/19,11:00,0.66,ND,16
2019/02/19,11:10,0.64,ND,18
2019/02/19,11:20,0.60,ND,13
2019/02/19,11:30,0.58,ND,14
2019/02/19,11:40,0.55,ND,16
2019/02/19,11:50,0.51,ND,13
2019/02/19,12:00,0.49,ND,10
2019/02/19,12:10,0.45,ND,9.0
2019/02/19,12:20,0.44,ND,12
2019/02/19,12:30,0.44,ND,9.9
2019/02/19,12:40,0.41,ND,12
2019/02/19,12:50,0.40,ND,11
2019/02/19,13:00,0.38,ND,14
2019/02/19,13:10,0.38,ND,13
2019/02/19,13:20,0.38,ND,12
2019/02/19,13:30,0.37,ND,12
2019/02/19,13:40,0.31,ND,10
2019/02/19,13:50,0.30,ND,11
2019/02/19,14:00,0.35,ND,9.6
2019/02/19,14:10,0.33,ND,11
2019/02/19,14:20,0.26,ND,11
2019/02/19,14:30,0.24,ND,9.5
2019/02/19,14:40,0.25,ND,9.0
2019/02/19,14:50,0.28,ND,9.3
2019/02/19,15:00,0.27,ND,ND
2019/02/19,15:10,0.29,ND,ND
2019/02/19,15:20,0.28,ND,8.8
2019/02/19,15:30,0.29,ND,ND
2019/02/19,15:40,0.31,ND,ND
2019/02/19,15:50,0.27,ND,ND
2019/02/19,16:00,0.25,ND,9.3
2019/02/19,16:10,0.24,ND,11
2019/02/19,16:20,0.25,ND,10
2019/02/19,16:30,0.24,ND,15
2019/02/19,16:40,0.23,ND,16
2019/02/19,16:50,0.25,ND,16
2019/02/19,17:00,0.28,ND,14
2019/02/19,17:10,0.28,ND,13
2019/02/19,17:20,0.28,ND,13
2019/02/19,17:30,0.29,ND,8.9
2019/02/19,17:40,0.29,ND,11
2019/02/19,17:50,0.29,ND,12
2019/02/19,18:00,0.27,ND,13
2019/02/19,18:10,0.27,ND,14
2019/02/19,18:20,0.26,ND,14
2019/02/19,18:30,0.26,ND,14
2019/02/19,18:40,0.28,ND,12
2019/02/19,18:50,0.26,ND,13
2019/02/19,19:00,0.28,ND,14
2019/02/19,19:10,0.28,ND,13
2019/02/19,19:20,0.29,ND,12
2019/02/19,19:30,0.29,ND,12
2019/02/19,19:40,0.26,ND,12
2019/02/19,19:50,0.27,ND,9.5
2019/02/19,20:00,0.27,ND,10
2019/02/19,20:10,0.28,ND,11
2019/02/19,20:20,0.29,ND,12
2019/02/19,20:30,0.29,ND,13
2019/02/19,20:40,0.32,ND,14
2019/02/19,20:50,0.33,ND,17
2019/02/19,21:00,0.35,ND,14
2019/02/19,21:10,0.36,ND,14
2019/02/19,21:20,0.39,ND,14
2019/02/19,21:30,0.40,ND,14
2019/02/19,21:40,0.40,ND,12
2019/02/19,21:50,0.42,ND,12
2019/02/19,22:00,0.42,ND,11
2019/02/19,22:10,0.44,ND,11
2019/02/19,22:20,0.43,ND,14
2019/02/19,22:30,0.45,ND,14
2019/02/19,22:40,0.46,ND,15
2019/02/19,22:50,0.46,ND,16
2019/02/19,23:00,0.47,ND,16
2019/02/19,23:10,0.47,ND,15
2019/02/19,23:20,0.47,ND,12
2019/02/19,23:30,0.53,ND,11
2019/02/19,23:40,0.50,ND,13
2019/02/19,23:50,0.48,ND,14
